Tracking 22124 objects as of 23-Jan-2021
HD Live streaming from Space Station
objects crossing your sky now

GLOBALSTAR M003

Track GLOBALSTAR M003 now!
10-day predictions
GLOBALSTAR M003 is classified as:


NORAD ID: 25165
Int'l Code: 1998-008D
Perigee: 1,629.1 km
Apogee: 1,640.8 km
Inclination: 52.0 °
Period: 118.8 minutes
Semi major axis: 8005 km
RCS: 2.2435 m2 (large)
Launch date: February 14, 1998
Source: Globalstar (GLOB)
Launch site: AIR FORCE EASTERN TEST RANGE (AFETR)
aabbcc
Your satellite tracking list
Your tracking list is empty




NASA's NSSDC Master Catalog

Two Line Element Set (TLE):
1 25165U 98008D   21023.53767502 -.00000191  00000-0 -10805-2 0  9996
2 25165  51.9810 296.6926 0007265 301.0178 230.4998 12.11945270 38531
Source of the keplerian elements: AFSPC